www.pogodaiklimat.ru

Погода и климат >> Архив погоды >> Гондурас >> Choluteca


ПОГОДА в Choluteca

  • Прогноз погоды в Choluteca
  • Монитор погоды в Choluteca
  • Климат города

АРХИВ ПОГОДЫ в Choluteca

Время (UTC), дата Ветер
(напр.,м/с)
 
Видим.   Явления Облачность Т
(С)
Тd
(С)
f
(%)
Тe
(С)
Тes
(С)
Комфортность P
(гПа)
Po
(гПа)
Тmin
(С)
Tmax
(С)
R
(мм)
R24
(мм)
S
(см)
12 20.04 С 5 20 км мгла 9/1 900 м
[Sc Cs]
+27.8 +20.6 65 +35 +35 очень
душно
1013.7 1008.0 +27.8 +37.8
15 20.04 СВ 7 20 км мгла {туман} 4/1 1020 м
[Cu hum Ci fib]
+32.8 +19.4 45 +38 +41 очень
душно
1014.7 1009.0
18 20.04 СВ 7 20 км мгла {туман} 5/5 1020 м
[Cu hum]
+37.2 +19.6 36 +42 +45 опасность
перегрева
1013.7 1008.0 +27.8 +37.8
21 20.04 СВ 8 10 км мгла {туман} 6/6 1020 м
[Cu hum]
+39.6 +21.3 35 +46 +47 опасность
перегрева
1013.7 1008.0
00 21.04 С 5 20 км мгла {туман} 5/5 1020 м
[Cu hum]
+24.4 +2.1 23 +23 +23 комфорт 1015.2 1009.5 +27.8 +40.4
12 21.04 СВ 3 25 км мгла 3/1 900 м
[Sc Ci fib]
+28.0 +20.2 63 +34 +35 очень
душно
1013.2 1007.5 +28.0 +40.4
15 21.04 С 6 28 км мгла {туман} 3/3 960 м
[Cu hum]
+33.2 +19.9 46 +39 +43 очень
душно
1014.4 1008.7
18 21.04 С 5 28 км мгла {туман} 5/5 1020 м
[Cu hum]
+38.4 +19.9 34 +44 +49 опасность
перегрева
1014.2 1008.5 +23.0 +38.4
21 21.04 С 7 28 км мгла {туман} 5/5 1020 м
[Cu med, cong]
+40.0 +19.4 30 +44 +46 опасность
перегрева
1014.0 1008.3
00 22.04 Ю 2 25 км дым {туман} 6/5 960 м
[Cb cap Ci sp]
+34.1 +20.7 46 +41 +41 опасность
перегрева
1013.7 1008.0 +28.0 +40.0
15 22.04 СВ 7 20 км мгла {туман} 5/3 1020 м
[Cu hum Ci fib]
+33.2 +19.7 45 +39 +41 очень
душно
1015.1 1009.4
18 22.04 СЗ 3 20 км мгла {туман} 4/4 1020 м
[Cu hum]
+37.2 +19.6 36 +42 +53 опасность
перегрева
1013.7 1008.0 +27.4 +37.2
21 22.04 Ю 2 20 км мгла {туман} 5/5 1020 м
[Cu med, cong]
+39.6 +35 +40 очень
жарко
1013.0 1007.3
00 23.04 Ю 5 20 км мгла {туман} 4/4 1020 м
[Cu med, cong]
+34.8 +21.8 47 +43 +43 опасность
перегрева
1014.2 1008.5 +27.4 +39.6
12 23.04 штиль 0 15 км дым 6/1 900 м
[Sc Cs]
+25.2 +20.9 77 +32 +32 очень
душно
1014.0 1008.3 +25.2 +39.6
15 23.04 С 6 3800 м дым {туман} 5/1 960 м
[Cu hum Ci fib]
+34.0 +19.5 43 +40 +44 очень
душно
1014.4
18 23.04 С 3 20 км дым {туман} 4/4 1020 м
[Cu hum]
+38.2 +18.8 32 +42 +53 опасность
перегрева
1014.3 1008.6 +25.2 +38.2
21 23.04 Ю 4 20 км дым {туман} 5/5 1020 м
[Cu med, cong]
+38.4 +20.8 36 +45 +48 опасность
перегрева
1013.8 1008.1
00 24.04 ЮЗ 3 20 км дым {туман} 6/5 1020 м
[Cu med, cong Ci fib]
+33.6 +23.4 55 +44 +44 опасность
перегрева
1014.2 1008.5 +25.2 +40.0
12 24.04 штиль 0 20 км мгла 8/3 900 м
[Sc Ac trans]
+27.0 +21.1 70 +34 +34 очень
душно
1014.7 1009.0 +27.0 +40.0
15 24.04 СВ 5 20 км мгла {туман} 8/4 1020 м
[Cu hum Ci fib]
+32.8 +20.9 50 +40 +44 очень
душно
1015.7 1010.0
18 24.04 С 7 10 км мгла {туман} 5/5 1020 м
[Cu hum]
+37.8 +20.6 37 +44 +47 опасность
перегрева
1013.7 1008.0 +20.6 +37.8
21 24.04 С 6 20 км мгла {туман} 6/6 1020 м
[Cu med, cong]
+40.2 +21.2 34 +47 +49 опасность
перегрева
1013.0 1007.3
00 25.04 Ю 5 20 км мгла {туман} 5/5 1020 м
[Cu med, cong]
+34.0 +22.2 50 +43 +43 опасность
перегрева
1014.2 1008.5 +27.0 +40.2
12 25.04 штиль 0 18 км дым 8/1 900 м
[Sc Cs]
+26.2 +20.2 70 +32 +33 очень
душно
1014.2 1008.5 +26.2 +40.2
15 25.04 С 1 18 км дым {туман} 6/3 960 м
[Cu hum Cs]
+33.0 +19.8 46 +39 +49 очень
душно
1014.9 1009.2
18 25.04 С 2 10 км дым {туман} 8/3 1020 м
[Cu hum Cs]
+38.2 +19.1 33 +43 +56 опасность
перегрева
1014.4 1008.7 +26.2 +38.2
21 25.04 штиль 0 28 км дым {туман} 6/5 1020 м
[Cu med, cong Ci fib]
+39.0 +20.0 33 +44 +51 опасность
перегрева
1013.6 1007.9
00 26.04 ЮЗ 3 28 км дым {туман} 8/4 960 м
[Cu med, cong Ac trans Ci fib]
+31.8 +21.3 54 +40 +40 очень
душно
1014.3 1008.6 +26.2 +39.5
15 26.04 С 2 4000 м дым {туман} 6/3 1020 м
[Cu hum Cs]
+32.0 +20.8 52 +39 +47 очень
душно
1015.2 1009.5
18 26.04 штиль 0 4000 м дым {туман} 5/5 1020 м
[Cu med, cong]
+37.6 +20.6 37 +44 +59 опасность
перегрева
1014.0 1008.3 +26.0 +37.6
21 26.04 З 6 5000 м дым {туман} 6/6 1020 м
[Cu med, cong]
+35.2 +21.7 46 +43 +45 опасность
перегрева
1012.7 1007.0

 

Местоположение метеостанции Choluteca (Гондурас): широта 13.30 долгота -87.18 высота над уровнем моря 48 м.

В архиве по умолчанию представлена погода в Choluteca за последнюю неделю. Архивные данные за месяц целиком и за предыдущие месяцы, начиная с января 2011 года, Вы можете получить, выбрав интересующий диапазон дат из раскрывающегося списка и нажав кнопку "Ввод!".


*Определитесь, кто Вы:
робот инопланетянин человек

Внимание! Время в таблицах - всемирное. Для получения местного времени необходимо прибавить поправку, которая в Choluteca равна -6 ч.

Смотрите также архив погоды в соседних городах и на ближайших метеорологических станциях:

Погода в Amapala (Гондурас) (51 км)
Погода в Chinandega (Никарагуа) (75 км)
Погода в Tegucigalpa (Гондурас) (83 км)
Погода в Jinotega (Никарагуа) (132 км)
Погода в La Esperanza (Гондурас) (155 км)
Погода в Managua (Никарагуа) (168 км)
Погода в Yoro (Гондурас) (208 км)
Погода в Catacamas (Гондурас) (223 км)
Погода в Juigalpa (Никарагуа) (237 км)
Погода в Santa Rosa De Copan (Гондурас) (239 км)

Пояснения к столбцам:

Ветер - указаны скорость ветра в м/с - средняя за 10 мин, порывы в срок и между сроками (в фигурных скобках) и направление, откуда дует ветер: С - северный, СВ - северо-восточный, В - восточный, ЮВ - юго-восточный, Ю - южный, ЮЗ - юго-западный, З - западный, СЗ - северо-западный.
Видимость - горизонтальная дальность видимости в метрах или километрах. При видимости от 1 до 10 км при отсутствии осадков обычно наблюдается дымка, при ухудшении видимости до 1 км и менее - туман. В сухую погоду видимость может ухудшаться дымом, пылью или мглою.
Явления - указаны атмосферные явления, наблюдавшиеся в срок или в последний час перед сроком; фигурными скобками обозначены явления, наблюдавшиеся между сроками (за 1-3 часа до срока); квадратными скобками обозначены град или гололедные отложения с указанием их диаметра в мм.
Облачность - указаны через наклонную черту общая и нижняя облачность в баллах и высота нижней границы облаков в метрах; квадратными скобками обозначены формы облаков: Ci - перистые, Cs - перисто-слоистые, Cc - перисто-кучевые, Ac - высококучевые, As - высокослоистые, Sc - слоисто-кучевые, Ns - слоисто-дождевые, Cu - кучевые, Cb - кучево-дождевые. Подробнее классификацию облаков см. в Атласе облаков (PDF).
T - Температура воздуха - температура, измеренная на высоте 2 м над землей.
Td - Температура точки росы - температура, при понижении до которой содержащийся в воздухе водяной пар достигнет насыщения.
f - Относительная влажность воздуха - влажноcть воздуха, измеренная на высоте 2 м над землей.
Te - Эффективная температура - температура, которую ощущает одетый по сезону человек в тени. Характеристика душности погоды. При расчете учитывается влияние влажности воздуха и скорости ветра на теплоощущения человека.
Tes - Эффективная температура на солнце - температура, которую ощущает человек, с поправкой на солнечный нагрев. Характеристика знойности погоды. Зависит от высоты солнца над горизонтом, облачности и скорости ветра. Ночью, в пасмурную погоду, а также при ветре 12 м/с и более поправка равна нулю.
P - Атмосферное давление - приведенное к уровню моря атмосферное давление.
Po - Атмосферное давление - измеренное на уровне метеостанции атмосферное давление.
Tmin - Минимальная температура - минимум температуры воздуха на высоте 2 м над землей.
Tmax - Максимальная температура - максимум температуры воздуха на высоте 2 м над землей.
R - Количество осадков - Количество выпавших осадков за период времени, мм. При наведении курсора мыши на число - период времени, за который выпало указанное количество осадков.
R24 - Количество осадков - Количество выпавших осадков за 24 часа, мм.
S - Снежный покров - Высота снежного покрова, см. При наведении курсора мыши на число - состояние снежного покрова и степень покрытия местности в баллах.